EAGLE 2

Last updated on May 19, 2018, 12:19 a.m. UTC

1 39436U 13066W   18138.34627707  .08053685  26553-5  29454-2 0  9995
2 39436  97.7009 274.5525 0018818 286.4398 133.6699 16.24208076248686

Satellite is not in orbit.